Location: Courset
(50.6463°N, 1.8422°E)
Time: 06:25:11
(UTC+00:00)

Daily predictions for brighter satellites

Satellite Brightness Start Highest point End
(mag) Time Altitude Azimuth Time Altitude Azimuth Time Altitude Azimuth
Ariane Rocket 3.1 19:06:18 10° SSE 19:11:22 90° WSW 19:16:28 10° NNW
Cosmos 1140 Rocket 4.3 19:07:39 10° SSE 19:11:58 27° E 19:16:18 10° NE
SL-4 R/B 1.9 19:09:16 10° SW 19:12:32 45° SSE 19:15:50 10° E
Cosmos 1953 Rocket 3.7 19:09:29 10° N 19:13:56 58° ENE 19:18:21 10° SSE
Cosmos 1703 3.3 19:10:54 10° N 19:14:52 63° ENE 19:18:47 10° SSE
STARLINK-1234 2.7 19:12:02 10° WNW 19:15:01 81° SSW 19:17:59 10° ESE
STARLINK-1246 3.9 19:10:55 10° WNW 19:15:03 67° N 19:19:11 10° E
STARLINK-1209 2.8 19:12:39 10° WNW 19:15:37 77° SSW 19:18:35 10° ESE
Cosmos 1606 Rocket 3.7 19:12:12 10° S 19:16:32 55° E 19:20:55 10° NNE
Cosmos 1340 Rocket 3.7 19:14:23 10° SSE 19:17:54 29° E 19:21:23 10° NNE
IRIDIUM 104 4.4 19:13:08 10° N 19:18:24 88° W 19:23:37 10° S
Cosmos 1328 3.8 19:14:33 10° N 19:18:33 67° ENE 19:22:31 10° SSE
STARLINK-1203 3.9 19:14:49 10° WNW 19:19:02 70° NNE 19:23:13 10° E
STARLINK-1233 2.9 19:15:59 10° WNW 19:19:09 88° NNE 19:22:13 11° ESE
STARLINK-1212 2.9 19:16:26 10° WNW 19:19:35 89° NNE 19:22:37 11° ESE
STARLINK-1105 2.9 19:16:52 10° WNW 19:20:01 89° NNW 19:23:04 11° ESE
STARLINK-1224 3.8 19:15:55 10° WNW 19:20:04 68° N 19:24:12 10° E
STARLINK-1206 2.8 19:17:22 10° WNW 19:20:30 90° NNE 19:23:29 11° ESE
STARLINK-1247 2.8 19:17:49 10° WNW 19:20:57 90° SE 19:23:55 11° ESE
STARLINK-1227 2.9 19:18:14 10° WNW 19:21:23 90° S 19:24:22 11° ESE
MOS 1 4.3 19:16:00 10° SSE 19:21:40 85° ENE 19:27:23 10° NNW
STARLINK-1218 2.8 19:18:42 10° WNW 19:21:51 89° S 19:24:47 11° ESE
Cosmos 614 Rocket 4.1 19:16:53 10° S 19:21:56 51° ESE 19:26:58 10° NNE
STARLINK-1226 2.8 19:19:08 10° WNW 19:22:17 89° SSW 19:25:13 11° ESE
STARLINK-1254 2.9 19:19:35 10° WNW 19:22:44 88° SSW 19:25:40 12° ESE
STARLINK-1215 2.8 19:20:05 10° WNW 19:23:13 88° SSW 19:26:06 12° ESE
ERBS 3.2 19:20:25 10° NW 19:23:37 39° NNE 19:26:49 10° E
Cosmos 2074 Rocket 4.2 19:17:19 10° N 19:23:39 85° W 19:29:57 10° S
STARLINK-1231 2.8 19:20:31 10° WNW 19:23:39 88° SSW 19:26:31 12° ESE
Cosmos 1908 3.4 19:20:42 10° S 19:24:27 50° E 19:28:15 10° NNE
STARLINK-1232 2.8 19:21:26 10° WNW 19:24:34 87° SSW 19:27:24 12° ESE
STARLINK-1217 2.8 19:21:52 10° WNW 19:25:00 86° SSW 19:27:49 12° ESE
STARLINK-1225 3.8 19:20:55 10° WNW 19:25:04 69° NNE 19:29:09 10° E
STARLINK-1208 2.9 19:22:18 10° WNW 19:25:27 86° SSW 19:28:17 12° ESE
STARLINK-1229 2.8 19:22:46 10° WNW 19:25:55 85° SSW 19:28:41 12° ESE
STARLINK-1271 2.8 19:23:13 10° WNW 19:26:21 85° SSW 19:29:07 13° ESE
STARLINK-1270 2.8 19:23:40 10° WNW 19:26:48 85° SSW 19:29:33 13° ESE
STARLINK-1154 2.8 19:24:07 10° WNW 19:27:15 84° SSW 19:29:59 13° ESE
APEX 4.4 19:20:46 10° NNW 19:27:28 85° WSW 19:32:54 10° SSE
STARLINK-1197 2.8 19:25:02 10° WNW 19:28:10 83° SSW 19:30:52 13° ESE
STARLINK-1189 2.8 19:25:28 10° WNW 19:28:36 83° SSW 19:31:17 13° ESE
STARLINK-1198 2.8 19:25:56 10° WNW 19:29:05 82° SSW 19:31:44 13° ESE
STARLINK-1188 2.8 19:26:21 10° WNW 19:29:29 82° SSW 19:32:08 14° ESE
STARLINK-1230 3.8 19:25:53 10° WNW 19:30:02 71° NNE 19:33:55 12° E
Cosmos 1726 2.5 19:26:23 10° SSW 19:30:07 71° W 19:33:51 10° N
STARLINK-1235 3.0 19:27:02 10° WNW 19:30:11 70° SSW 19:32:51 14° ESE
STARLINK-1187 2.9 19:27:27 10° WNW 19:30:37 75° SSW 19:33:16 14° ESE
STARLINK-67 3.4 19:28:49 10° W 19:31:14 37° SSW 19:33:19 13° SE
STARLINK-1199 2.9 19:28:18 10° WNW 19:31:28 80° SSW 19:34:04 14° ESE
SL-24 R/B 4.3 19:27:46 10° NNE 19:31:36 38° E 19:35:07 10° SSE
STARLINK-1191 2.9 19:28:46 10° WNW 19:31:55 80° SSW 19:34:30 14° ESE
STARLINK-1210 2.9 19:29:13 10° WNW 19:32:22 79° SSW 19:34:56 14° ESE
Cosmos 1656 Rocket 4.3 19:26:50 10° NW 19:32:22 57° WSW 19:37:49 10° S
Cosmos 1943 3.4 19:26:54 10° SSW 19:32:35 80° WNW 19:38:19 10° NNE
STARLINK-1221 2.9 19:29:41 10° WNW 19:32:50 79° SSW 19:35:23 15° ESE
STARLINK-1219 2.9 19:30:07 10° WNW 19:33:16 79° SSW 19:35:49 15° ESE
STARLINK-1222 2.9 19:30:35 10° WNW 19:33:44 78° SSW 19:36:15 15° ESE
STARLINK-1211 2.9 19:31:03 10° WNW 19:34:12 78° SSW 19:36:41 15° ESE
STARLINK-1214 2.9 19:31:28 10° WNW 19:34:37 77° SSW 19:37:06 15° ESE
Abrixas rocket 2.6 19:31:49 10° W 19:34:39 43° SSW 19:36:49 15° SE
STARLINK-1243 3.7 19:30:52 10° WNW 19:35:01 73° NNE 19:38:42 13° E
STARLINK-1245 2.9 19:31:58 10° WNW 19:35:05 77° SSW 19:37:32 15° ESE
Meteor 2-10 4.4 19:29:58 10° SSW 19:35:30 78° WNW 19:41:14 10° N
STARLINK-1238 2.9 19:32:23 10° WNW 19:35:32 76° SSW 19:37:59 15° ESE
BREEZE-M DEB (TANK) 4.1 19:29:20 10° WNW 19:36:12 53° SSW 19:38:39 14° SE
STARLINK-1205 2.9 19:33:19 10° WNW 19:36:27 75° SSW 19:38:51 16° ESE
STARLINK-1204 2.9 19:33:47 10° WNW 19:36:54 75° SSW 19:39:16 16° ESE
STARLINK-29 4.0 19:34:38 10° SSW 19:37:21 25° SE 19:39:26 14° E
STARLINK-1236 3.7 19:35:51 10° WNW 19:40:00 75° NNE 19:43:28 14° E
Cosmos 1610 Rocket 4.5 19:34:19 10° N 19:40:34 87° E 19:46:43 10° S
MetOp-A 4.1 19:36:04 10° SSE 19:41:23 71° ENE 19:46:44 10° N
CZ-2C R/B 3.1 19:37:09 10° NNE 19:41:56 36° E 19:46:43 10° SSE
STARLINK-60 3.2 19:38:58 10° SW 19:42:09 50° SSE 19:45:10 11° ENE
Cosmos 1697 Rocket 4.3 19:39:47 10° NNW 19:44:09 22° NE 19:48:22 11° E
Cosmos 1953 4.0 19:40:49 10° SW 19:44:33 38° WNW 19:48:20 10° N
Cosmos 407 Rocket 3.4 19:43:26 10° SSW 19:48:33 70° ESE 19:53:39 10° NNE
Terra 3.9 19:47:15 10° ENE 19:49:04 12° NE 19:50:53 10° NNE
Meteor 1-11 4.4 19:43:54 10° NNW 19:49:42 83° W 19:55:23 10° S
ARGOS 3.7 19:44:35 10° S 19:49:55 62° WSW 19:55:16 10° NNW
STARLINK-1269 3.6 19:45:48 10° WNW 19:49:58 80° NNE 19:53:02 18° ESE
Cosmos 676 Rocket 4.4 19:46:07 10° S 19:51:00 40° ESE 19:55:54 10° NE
STARLINK-1200 3.6 19:50:46 10° WNW 19:54:56 83° NNE 19:57:48 19° ESE
CZ-2C R/B 3.7 19:53:26 10° NNE 19:58:10 72° ESE 20:02:46 10° S
SL-24 R/B - RUBIN 2 4.3 19:52:53 10° SSW 19:58:32 71° SE 20:04:54 10° NE
STARLINK-1192 3.6 19:55:47 10° WNW 19:59:56 86° NNE 20:02:36 21° ESE
SPOT 3 Rocket 3.7 19:55:00 10° SSE 20:00:13 80° WSW 20:05:27 10° NNW
Resurs 1-3 3.6 19:58:16 10° SSE 20:02:40 89° WSW 20:07:05 10° NNW
COSMOS 2455 3.0 19:58:28 10° NW 20:04:31 78° WSW 20:09:33 15° SSE
STARLINK-1201 3.3 20:01:34 10° WNW 20:04:47 54° SSW 20:06:17 27° SE
STARLINK-1244 3.6 20:00:46 10° WNW 20:04:56 89° NNE 20:07:23 24° ESE
STARLINK-1228 3.8 20:03:43 10° W 20:06:13 31° SSW 20:07:12 24° S
Cosmos 1656 4.4 20:02:24 10° NNW 20:07:47 41° NE 20:11:09 21° ESE
STARLINK-1138 3.6 20:05:44 10° WNW 20:09:54 88° SSW 20:12:10 26° ESE
Cosmos 1023 Rocket 4.4 20:05:30 10° SSW 20:10:40 81° ESE 20:15:49 10° NNE
MOS 1 Rocket 3.6 20:05:56 10° NNE 20:11:20 69° ESE 20:16:45 10° S
Cosmos 1455 4.3 20:13:23 13° ENE 20:13:23 13° ENE 20:14:37 10° NE
FALCON 9 DEB 3.5 20:09:40 10° SW 20:13:01 43° SSE 20:14:16 30° E
Cosmos 1954 Rocket 4.0 20:08:08 10° S 20:13:16 58° ESE 20:18:24 10° NNE
Cosmos 1980 Rocket 3.9 20:09:36 10° NNW 20:13:50 21° NE 20:17:17 13° E
STARLINK-1143 3.5 20:10:43 10° WNW 20:14:53 84° SSW 20:16:57 29° ESE
IGS 5A 4.4 20:13:40 25° ESE 20:15:10 32° ENE 20:18:52 10° N
Cosmos 1818 4.4 20:10:28 10° WSW 20:15:48 53° NW 20:21:09 10° NE
Cosmos 1892 3.5 20:12:24 10° N 20:16:01 34° ENE 20:17:06 29° ESE
ATLAS CENTAUR R/B 3.0 20:14:21 10° NNW 20:17:34 23° NNE 20:19:27 16° ENE
STARLINK-52 3.2 20:14:36 10° SW 20:17:40 43° SSE 20:18:09 40° ESE
Cosmos 2058 Rocket 3.4 20:14:19 10° SSW 20:18:48 71° W 20:23:19 10° N
STARLINK-1241 3.6 20:15:44 10° WNW 20:19:54 81° SSW 20:21:46 32° ESE
BREEZE M DEB (TANK) 3.6 20:17:55 10° SSW 20:21:18 38° SE 20:30:12 10° ENE
Cosmos 2341 Rocket 4.1 20:16:16 10° N 20:22:41 85° W 20:29:05 10° S
Cosmos 1825 3.9 20:20:26 10° NNE 20:23:10 19° ENE 20:23:21 19° ENE
CZ-4C R/B 3.6 20:17:24 10° NW 20:23:38 41° NNE 20:29:18 16° E
SPOT 1/Viking Rocket 4.1 20:21:22 25° ESE 20:23:51 42° ENE 20:28:46 10° N
ATLAS 5 CENTAUR R/B 1.5 20:19:58 10° SW 20:24:12 90° NW 20:29:03 10° NE
STARLINK-1239 3.6 20:20:41 10° WNW 20:24:50 77° SSW 20:26:31 35° ESE
Cosmos 1763 Rocket 3.7 20:23:31 10° NNW 20:28:39 55° ENE 20:30:58 30° SE
STARLINK-1240 3.6 20:25:40 10° WNW 20:29:49 73° SSW 20:31:18 38° SE
Cosmos 921 Rocket 4.1 20:26:45 10° NW 20:30:41 40° WSW 20:34:06 13° S
STARLINK-1216 3.6 20:30:39 10° WNW 20:34:47 70° SSW 20:36:05 41° SE
Cosmos 540 Rocket 4.4 20:30:19 10° NNW 20:35:04 35° NE 20:36:54 27° E
Resurs 01 Rocket 2.0 20:31:53 17° S 20:35:14 61° W 20:39:38 10° NNW
Cosmos 2218 Rocket 3.9 20:29:12 10° N 20:35:26 78° E 20:39:41 22° SSE
H-2A R/B 4.3 20:32:07 10° SW 20:36:06 22° W 20:40:02 10° NW
Meteor 2-12 Rocket 4.5 20:31:14 10° N 20:37:19 63° ENE 20:40:31 28° SSE
Cosmos 1300 2.9 20:35:17 10° SSW 20:39:00 70° WNW 20:42:51 10° N
Cosmos 1174 4.0 20:35:27 10° NW 20:39:30 87° SW 20:41:25 36° SE
STARLINK-1237 3.7 20:35:37 10° WNW 20:39:44 66° SSW 20:40:51 44° SE
Iridium 4 Rocket 2.9 20:36:32 10° N 20:40:43 62° E 20:41:54 42° SE
USA 234 3.6 20:37:00 10° ENE 20:43:05 40° SE 20:49:09 10° SSW
Landsat 7 3.8 20:42:03 36° SE 20:43:51 65° ENE 20:48:36 10° N
In-Cosmos 22 Rocket 4.3 20:38:02 10° NNW 20:43:56 88° W 20:47:33 24° S
STARLINK-1202 3.7 20:40:38 10° WNW 20:44:44 62° SSW 20:45:40 47° SSE
SAR-Lupe-2 3.4 20:41:39 10° NNE 20:45:15 77° ESE 20:46:10 47° S
Cosmos 220 Rocket 4.2 20:42:27 10° NNW 20:46:46 67° WSW 20:48:32 34° S
Cosmos 2082 Rocket 4.2 20:49:07 12° ENE 20:49:07 12° ENE 20:49:53 10° ENE
Cosmos 1812 Rocket 3.4 20:46:08 33° S 20:47:59 73° E 20:52:20 10° NNE
ATLAS 2AS CENTAUR R/B 4.4 20:43:27 10° NW 20:49:37 28° WSW 20:55:21 10° SSW
SL-8 Rocket 4.2 20:43:22 10° NNW 20:49:41 74° W 20:54:31 18° S
USA 245 4.4 20:46:40 27° SSE 20:50:05 88° ENE 20:56:36 10° NNW
RESURS DK-1 2.6 20:46:57 10° NNW 20:51:03 53° NE 20:51:45 46° E
Cosmos 864 Rocket 4.4 20:45:31 10° N 20:51:47 89° WSW 20:55:29 26° S
SL-4 R/B 1.6 20:48:34 10° W 20:51:59 77° N 20:52:29 61° ENE
Cosmos 2058 2.9 20:48:36 10° NNW 20:52:44 79° W 20:54:04 42° S
Cosmos 1140 Rocket 4.3 20:48:28 10° SW 20:53:31 51° WNW 20:58:33 10° NNE
Cosmos 2181 Rocket 4.0 20:47:43 10° S 20:53:59 85° W 21:00:12 10° N
STARLINK-1246 3.8 20:50:35 10° WNW 20:54:39 55° SSW 20:55:12 50° S
Cosmos 1833 Rocket 3.9 20:56:29 24° E 20:56:29 24° E 20:59:50 10° NE
MetOp-B 4.3 20:53:18 25° S 20:56:26 69° WSW 21:01:49 10° NNW
USA 32 4.1 20:52:13 10° N 20:57:25 58° E 20:58:48 44° SE
Cosmos 2151 3.1 20:54:17 10° N 20:58:25 52° ENE 20:58:42 51° E
STARLINK-1203 4.0 20:54:43 10° WNW 20:58:48 50° SSW 20:59:15 47° S
Meteor 2-10 Rocket 3.9 20:58:38 41° ESE 20:59:21 44° E 21:04:30 10° NNE
STARLINK-1224 3.9 20:55:36 10° WNW 20:59:38 52° SSW 21:00:00 50° S
ERBS 2.8 20:56:45 10° WNW 20:59:49 49° SW 20:59:49 49° SW
Spot 2 Rocket 3.7 20:59:40 31° S 21:02:09 70° WSW 21:07:16 10° NNW
Cosmos 2366 rocket 4.1 20:57:05 10° NNW 21:03:13 73° W 21:06:59 25° S
BREEZE-M DEB (TANK) 3.1 21:00:26 10° W 21:02:11 28° W 21:02:11 28° W
Cosmos 1850 Rocket 3.9 21:02:15 36° S 21:04:17 64° ESE 21:09:26 10° NNE
STARLINK-1225 4.0 21:00:36 10° WNW 21:04:36 49° SSW 21:04:48 48° SSW
Cosmos 841 Rocket 3.6 21:01:40 10° NNW 21:06:57 64° ENE 21:08:12 49° ESE
STARLINK-1230 4.1 21:05:34 10° WNW 21:09:33 46° SSW 21:09:34 46° SSW
Cosmos 1076 Rocket 4.1 21:05:23 10° NNW 21:09:34 53° W 21:11:04 34° SSW
COSMOS 2406 3.3 21:08:17 44° SSE 21:09:34 53° ESE 21:15:09 10° NE
Cosmos 1408 2.6 21:08:22 10° N 21:11:46 73° NNE 21:11:46 73° NNE
STARLINK-29 4.4 21:10:02 10° WSW 21:11:57 33° WSW 21:11:57 33° WSW
STARLINK-1243 4.2 21:10:33 10° WNW 21:14:20 43° SW 21:14:20 43° SW
Cosmos 1408 Rocket 4.3 21:10:55 10° N 21:14:52 38° ENE 21:14:52 38° ENE
Nadezhda 3 Rocket 4.1 21:15:55 45° SE 21:17:23 54° E 21:23:29 10° NNE
STARLINK-60 4.0 21:15:15 10° W 21:17:50 47° WNW 21:17:50 47° WNW
Cosmos 468 Rocket 4.5 21:13:37 10° NNW 21:18:39 53° WSW 21:20:19 37° SSW
STARLINK-1236 4.4 21:15:33 10° WNW 21:19:07 39° SW 21:19:07 39° SW
CZ-2C R/B 3.9 21:17:31 10° N 21:22:16 38° WNW 21:27:02 10° SW
SPOT 5 2.4 21:22:33 78° ESE 21:22:45 81° ENE 21:27:06 10° NNW
Terra 1.8 21:25:36 64° E 21:25:56 66° ENE 21:30:40 10° N
Cosmos 2369 3.6 21:20:30 10° NNW 21:26:11 79° ENE 21:27:19 58° SE
Cosmos 1570 Rocket 4.0 21:21:58 10° NNW 21:27:21 78° WSW 21:28:26 57° S
ERS-1 Rocket 3.0 21:27:10 56° S 21:28:12 78° WSW 21:33:15 10° NNW
Cosmos 1697 Rocket 2.6 21:23:18 10° NNW 21:29:01 83° ENE 21:30:07 60° SE
Cosmos-2242 2.9 21:33:27 82° N 21:33:27 82° N 21:37:39 10° N
Cosmos 2239 Rocket 4.4 21:33:15 10° N 21:39:32 81° E 21:40:56 57° SSE
Cosmos 1821 Rocket 4.0 21:37:51 10° N 21:44:16 84° W 21:45:57 53° S
Cosmos 1934 Rocket 3.9 21:40:55 10° N 21:47:11 68° ENE 21:48:02 60° ESE
Cosmos 1455 3.0 21:48:16 49° NW 21:48:16 49° NW 21:51:30 10° N
Cosmos 1356 Rocket 3.9 21:48:19 59° W 21:48:23 59° WNW 21:52:35 10° N
SL-16 R/B 3.5 21:43:53 10° NNW 21:48:52 30° NE 21:50:12 27° ENE
Cosmos 2084 4.5 21:45:01 10° NW 21:49:11 39° NNE 21:49:17 39° NE
Cosmos 2360 Rocket 4.2 21:46:33 10° N 21:50:28 19° NE 21:53:00 14° ENE
Cosmos 1656 4.4 21:46:09 10° NW 21:51:30 43° WSW 21:52:36 39° SW
Cosmos 2322 Rocket 3.5 21:51:39 10° NNW 21:56:32 29° NE 21:57:48 26° ENE
ATLAS CENTAUR R/B 2.4 21:53:01 10° NW 21:55:38 39° NW 21:55:38 39° NW
Mayak 0.3 21:54:16 10° NNE 21:56:22 27° NE 21:56:22 27° NE
Cosmos 1980 Rocket 2.0 21:53:06 10° NNW 21:58:46 79° ENE 21:59:03 77° E
Cosmos 1825 3.5 21:55:18 10° NNW 21:58:10 37° WNW 21:58:10 37° WNW
CARTOSAT-1 4.5 22:00:00 41° W 22:00:00 41° W 22:04:02 10° NNW
Meteor 2-3 Rocket 3.6 21:57:03 10° NNW 22:02:50 90° WSW 22:03:11 80° S
Cosmos 1605 Rocket 4.0 21:57:29 10° N 22:03:36 60° ENE 22:03:58 59° E
Thor Agena Rocket 4.3 22:04:23 10° NNE 22:07:59 40° NE 22:07:59 40° NE
ATLAS 5 CENTAUR R/B 3.8 22:05:40 10° W 22:09:31 27° NNW 22:13:52 10° NE
CZ-4C R/B 2.8 22:05:52 10° NW 22:12:56 84° SW 22:14:29 61° SSE
ALOS 2 4.3 22:16:03 25° NE 22:16:03 25° NE 22:18:49 10° N
Cosmos 540 Rocket 4.2 22:11:54 10° NW 22:16:44 42° WSW 22:16:44 42° WSW
Cosmos 2360 4.5 22:17:33 10° NW 22:23:03 57° WSW 22:23:03 57° WSW
USA 234 3.2 22:19:57 10° ENE 22:26:31 85° NNW 22:33:05 10° WSW
Cosmos 2278 4.0 22:22:19 10° NW 22:27:38 55° WSW 22:27:38 55° WSW
Cosmos 2082 Rocket 2.4 22:30:55 63° NE 22:30:55 63° NE 22:35:42 10° NNE
ASTEX 1 4.1 22:37:03 49° WNW 22:37:03 49° WNW 22:41:26 10° NNW
Cosmos 1833 Rocket 3.0 22:38:06 57° W 22:38:45 62° NW 22:44:22 10° NNE
Cosmos 2344 4.3 22:35:22 10° NW 22:44:46 78° SW 22:48:33 51° SSE
Cosmos 2219 Rocket 4.3 22:44:21 10° N 22:48:17 19° NE 22:51:00 14° ENE
Cosmos 1607 4.2 22:55:17 57° ENE 22:55:17 57° ENE 23:00:15 10° NE
Terra 3.9 23:04:29 18° W 23:04:29 18° W 23:07:28 10° NW
Cosmos 968 Rocket 4.3 23:06:04 46° NNE 23:06:04 46° NNE 23:09:45 10° NNE
Cosmos 2221 4.2 23:11:04 32° NNW 23:11:04 32° NNW 23:13:51 10° N
Cosmos 1459 Rocket 4.0 23:06:53 10° N 23:12:56 73° NE 23:12:56 73° NE
Cosmos 1727 Rocket 4.1 23:24:37 73° WNW 23:24:37 73° WNW 23:30:44 10° N
Cosmos 2016 Rocket 4.1 23:25:37 10° N 23:31:34 70° NE 23:31:34 70° NE
Cosmos 1725 Rocket 4.3 23:26:09 10° N 23:32:04 60° ENE 23:32:04 60° ENE
SL-16 R/B 2.9 23:27:47 10° NW 23:32:03 49° WNW 23:32:03 49° WNW
Mayak 1.0 23:30:30 10° NNW 23:32:57 20° NW 23:32:57 20° NW
Cosmos 2360 Rocket 2.6 23:29:57 10° NNW 23:34:45 58° NNE 23:34:45 58° NNE
Cosmos 1802 Rocket 4.0 23:29:52 10° N 23:35:30 74° N 23:35:30 74° N
Cosmos 2100 Rocket 4.2 23:33:33 10° NNW 23:39:10 65° WNW 23:39:10 65° WNW
Cosmos 2322 Rocket 2.9 23:35:28 10° NNW 23:39:36 48° NW 23:39:36 48° NW
Cosmos 1980 Rocket 4.1 23:38:10 10° NW 23:40:49 18° W 23:40:49 18° W
MOS 1-B Rocket 4.2 23:37:33 10° NNE 23:43:26 71° E 23:43:26 71° E
Cosmos 2123 Rocket 4.3 23:45:08 55° ENE 23:45:08 55° ENE 23:50:28 10° NNE
Cosmos 2173 Rocket 4.2 23:41:01 10° NNW 23:46:21 60° WNW 23:46:21 60° WNW
Cosmos 2333 Rocket 3.1 23:49:03 10° NNW 23:54:26 42° NE 23:54:43 41° ENE
ATLAS 5 CENTAUR R/B 4.4 23:52:07 10° NW 23:55:48 20° N 23:59:53 10° NE
